Showing default

YAOGAN 22, 40275

Orbit data source: Space-Track

YAOGAN 22, 40275 is a payload satellite owned by PLA GAD (CN) in SSO that was launched on Mon, 20 Oct 2014 UTC via a CHANG ZHENG 4C launch vehicle from the Taiyaun Space Center, China (TSC). Payload-class satellites include a variety of spacecraft equipped with specific instruments for various scientific and technological missions. These include communications satellites like Starlink; space stations such as the ISS; scientific satellites like the Hubble; Earth observation satellites from companies like Planet Labs, Umbra, and HawkEye 360; GPS; miniature CubeSats for education and research; and military/defense satellites.

Loading next visibility...
Identifier
40275, 2014-063A
Orbit
SSO
Country
Flag of CNCN / PRC
Related business
Manufacturer
SAST
Mission
Operational Defense Imaging
Bus & Motor
JB-9, Unknown motor
Mass
1,040 kg wet, 1,040 kg dry
Launch date (UTC)
2014-10-20 (11 years ago)
Launch vehicle
CHANG ZHENG 4C
Launch site
Taiyaun Space Center, China (TSC)
Object type
Payload
Rocket body
Debris
Shape & HBR
Box + 2 Pan, 2.5 m
Radar Cross Section
4.795 m², Large (>1 m²)

Expand to show TLE details & history
Last TLE update: 12 hours ago

TLE from 12 hours ago
0 YAOGAN 22
1 40275U 14063A   25348.30509272 -.00000029  00000-0  47634-4 0  9992
2 40275 100.7422 131.7467 0005963 244.3462 115.7034 13.15522700535508
Epoch: 2025-12-14T07:19Z
TLE epoch observation values (Epoch: 2025-12-14T07:19:20.011Z)
Latitude
-0°
Longitude
-61.30659°
Altitude
1,206.534 km
Speed
7.25 km/s
True Right ascension
08h 46m 59s
True Declination
0° 00' 00"
Sunlit
Object was in full shadow at epoch
Visualization orbit readout
Latitude
Unknown
Longitude
Unknown
Altitude
Unknown
Speed
Unknown
Apparent Right ascension
Unknown
Apparent Declination
Unknown
Sunlit
N/A
Visualization observer readout
Local Sidereal Time
18:16:52
Azimuth
Unknown
Elevation
Unknown
Doppler factor
Unknown
Orbital elements
Apogee altitude
1,203.791 km
Perigee altitude
1,194.755 km
Semi-major axis
7,577.41 km
Eccentricity
0.0006
Inclination
100.7422°
RAAN
131.7467°
Arg. of periapsis
244.3462°
True anomaly
115.76495°
Mean anomaly
115.7034°
Eccentric anomaly
115.73418°
Mean motion
3.2905 °/min
Orbital period
109.41 mins
BSTAR
0.000047634
Loading maneuver chart data...
Computing Atmospheric mass density...
Loading historical data...
Loading historical data...
Loading historical data...
Loading historical data...
Loading historical data...
Loading historical data...
Loading historical data...
Other satellites on launch #63 in the year 2014 (2014-10-20 UTC)

Documentation

Showing up to 5 results
|